[[[{"header":{"parameterUnit":"kt","parameterCategory":2,"dx":1,"dy":1,"la1":30.253999710083008,"la2":30.299108505249023,"lo1":-89.0895004272461,"lo2":-89.04439544677734,"nx":28,"ny":28,"refTime":"2022-10-01T21:00:00:Z","depth":0,"parameterNumber":1,"parameterNumberName":"U-component_of_WINDS"},"data":[1.8146,1.8154,1.8153,1.8163,1.8164,1.817,1.8172,1.8175,1.8177,1.8185,1.819,1.8191,1.8192,1.8199,1.8204,1.8204,1.8206,1.8211,1.821,1.819,1.8187,1.8184,1.8182,1.8212,1.8212,1.8231,1.8231,1.8231,1.8136,1.8137,1.8141,1.8144,1.8148,1.8144,1.8146,1.815,1.8156,1.8158,1.8162,1.8169,1.8175,1.8175,1.818,1.8185,1.8183,1.8187,1.8185,1.8186,1.8165,1.8162,1.8189,1.8188,1.8188,1.8188,1.8188,1.8188,1.8117,1.8121,1.8122,1.8126,1.8127,1.813,1.8134,1.8133,1.8138,1.8142,1.8139,1.8146,1.8148,1.8152,1.8154,1.8159,1.8154,1.8158,1.8159,1.8159,1.8161,1.8135,1.816,1.816,1.816,1.816,1.816,0,1.8102,1.81,1.8103,1.8106,1.8109,1.8111,1.8113,1.8116,1.8111,1.8114,1.8119,1.8122,1.8128,1.8132,1.8136,1.8136,1.813,1.813,1.8132,1.8133,1.8134,1.8134,1.8099,1.8128,1.8128,1.8128,1.8128,1.8127,1.8082,1.8087,1.8086,1.8088,1.8088,1.8092,1.8094,1.8089,1.8091,1.8093,1.8097,1.8102,1.8104,1.8113,1.8111,1.8115,1.8111,1.8123,1.8112,1.8114,1.8111,1.8111,1.8112,1.8125,1.8125,1.8125,1.8125,0,1.8071,1.8067,1.8074,1.8072,1.8071,1.8077,1.8075,1.8079,1.8077,1.8083,1.8084,1.808,1.8084,1.808,1.8084,1.8082,1.8093,1.8091,1.8094,1.8092,1.8102,1.8101,1.8135,1.8139,1.8108,1.8108,1.8109,0,1.8052,1.8058,1.8052,1.8056,1.8063,1.8057,1.8065,1.8063,1.8062,1.8067,1.8059,1.8063,1.8056,1.806,1.8056,1.8065,1.8066,1.8064,1.8063,1.8064,1.8064,1.8064,1.8062,1.8059,1.8059,1.8059,1.8059,0,1.8034,1.8038,1.8044,1.8044,1.8041,1.8044,1.8043,1.8042,1.8043,1.8044,1.8045,1.8047,1.8048,1.805,1.8045,1.8038,1.8055,1.8044,1.8053,1.8054,1.8056,1.8055,1.8088,1.8059,1.8059,1.8059,1.8059,0,1.8017,1.8018,1.8027,1.8025,1.8025,1.8029,1.803,1.8032,1.8031,1.8029,1.8029,1.8023,1.8029,1.8018,1.8027,1.8019,1.8021,1.802,1.802,1.8019,1.8007,1.8025,1.8056,1.8059,1.8021,1.8021,1.802,0,1.7999,1.8006,1.8,1.8009,1.8011,1.8002,1.8006,1.8005,1.8001,1.8003,1.8,1.8002,1.7993,1.7992,1.7998,1.7993,1.8004,1.7992,1.7996,1.7996,1.7996,1.8025,1.803,1.805,1.8016,1.8017,1.8017,0,1.7983,1.7977,1.7979,1.7978,1.7974,1.7975,1.798,1.798,1.7982,1.798,1.7985,1.7987,1.7981,1.7979,1.7973,1.7979,1.7997,1.797,1.797,1.7975,1.8013,1.8019,1.8022,1.7992,1.7992,1.7993,1.8014,0,1.7959,1.796,1.7965,1.7962,1.7962,1.7966,1.7958,1.796,1.7954,1.7949,1.7955,1.795,1.7949,1.7951,1.7944,1.7958,1.7955,1.7947,1.7934,1.7953,1.796,1.7963,1.7925,1.7925,1.7924,1.7924,0,0,1.7942,1.7943,1.7934,1.7937,1.7937,1.7924,1.793,1.7928,1.7923,1.7923,1.7916,1.7918,1.7914,1.7921,1.7927,1.7926,1.7928,1.792,1.7944,1.7947,1.7949,1.7956,1.7959,1.7923,1.7923,1.7923,1.7923,0,1.793,1.7926,1.7931,1.7928,1.7923,1.7917,1.7918,1.7911,1.7908,1.7912,1.7901,1.7903,1.7903,1.7901,1.79,1.792,1.7911,1.7921,1.7935,1.7941,1.7944,1.7946,1.7954,1.7957,1.7922,1.7922,1.7922,0,1.7913,1.7907,1.7908,1.7904,1.7901,1.7902,1.7888,1.789,1.7891,1.7876,1.788,1.7876,1.7871,1.7878,1.7881,1.7875,1.7896,1.7887,1.7889,1.7889,1.7894,1.7898,1.7901,1.7861,1.7861,1.7861,0,0,1.7904,1.7905,1.7895,1.7901,1.79,1.789,1.7889,1.7882,1.7877,1.7876,1.7869,1.7866,1.7866,1.7866,1.7865,1.7874,1.7873,1.788,1.7883,1.7885,1.7886,1.7892,1.7896,1.786,1.786,1.786,0,0,1.7899,1.7888,1.7882,1.7887,1.7884,1.7874,1.7878,1.787,1.7868,1.7867,1.7854,1.7852,1.7859,1.7855,1.7847,1.7861,1.7849,1.785,1.7863,1.7866,1.7869,1.7869,1.783,0,0,0,0,0,1.7882,1.789,1.7884,1.7884,1.7878,1.7878,1.7877,1.7866,1.7859,1.7862,1.7856,1.7846,1.7848,1.7841,1.7841,1.7849,1.7852,1.7853,1.7855,1.7873,1.7877,1.788,0,0,0,0,0,0,1.7881,1.7881,1.7884,1.7875,1.7874,1.7877,1.7862,1.7859,1.7858,1.7856,1.7847,1.7845,1.7836,1.7841,1.7841,1.7848,1.783,1.7852,1.7854,1.7855,1.7874,1.7877,1.788,0,0,0,0,0,1.7881,1.7881,1.7873,1.7875,1.7874,1.7862,1.7861,1.7859,1.7858,1.7847,1.7845,1.785,1.7837,1.7836,1.7841,1.7849,1.783,1.783,1.7853,1.7854,1.7855,1.7876,0,0,0,0,0,0,1.7881,1.7879,1.7873,1.7872,1.787,1.7861,1.786,1.7859,1.7849,1.7846,1.7849,1.7848,1.7837,1.7837,1.7836,1.7849,1.783,1.783,1.783,1.7854,1.7855,1.7855,0,0,0,0,0,0,1.7879,1.7878,1.7872,1.7867,1.7866,1.7861,1.786,1.7861,1.7849,1.7851,1.785,1.7849,1.7838,1.7837,1.7837,1.784,1.783,1.783,1.783,1.783,1.7855,1.7855,0,0,0,0,0,0,1.7878,1.7878,1.7867,1.7866,1.7865,1.7855,1.7862,1.7857,1.7844,1.7852,1.7843,1.7842,1.7839,1.7838,1.7837,1.784,1.784,1.783,1.783,1.783,1.783,0,0,0,0,0,0,0,1.7878,1.7885,1.7877,1.7865,1.7864,1.7865,1.7865,1.7864,1.7844,1.7844,1.7843,1.7843,1.783,1.783,1.783,1.7841,0,0,1.783,1.783,0,0,0,0,0,0,0,0,1.7885,1.7885,1.7877,1.7877,1.7877,1.7865,1.7865,1.7864,1.7844,1.7844,1.7843,1.7843,1.783,1.783,1.783,0,0,0,0,0,0,0,0,0,0,0,0,0,0,0,1.7877,1.7877,0,1.7865,1.7865,1.7864,1.7844,1.7844,1.7843,1.7843,1.783,1.783,1.783,0,0,0,0,0,0,0,0,0,0,0,0,0,0,0,0,0,0,0,0,0,0,0,0,0,0,0,0,0,0,0,0,0,0,0,0,0,0,0,0,0,0,0,0,0,0,0,0,0,0,0,0,0,0,0,0,0,0,0,0,0,0,0,0,0,0,0,0,0]}],[{"header":{"parameterUnit":"kt","parameterCategory":2,"dx":1,"dy":1,"la1":30.253999710083008,"la2":30.299108505249023,"lo1":-89.0895004272461,"lo2":-89.04439544677734,"nx":28,"ny":28,"refTime":"2022-10-01T21:00:00:Z","depth":0,"parameterNumber":2,"parameterNumberName":"V-component_of_WINDS"},"data":[-10.7217,-10.7434,-10.7449,-10.7701,-10.7755,-10.7928,-10.7993,-10.8077,-10.8146,-10.8349,-10.8466,-10.8496,-10.8564,-10.8702,-10.8825,-10.8833,-10.8884,-10.8954,-10.8952,-10.8635,-10.8592,-10.855,-10.8501,-10.8966,-10.8966,-10.9278,-10.9281,-10.9283,-10.6989,-10.7048,-10.7185,-10.7327,-10.7444,-10.7387,-10.7491,-10.7591,-10.7744,-10.783,-10.7945,-10.8121,-10.8259,-10.8302,-10.8435,-10.8531,-10.8507,-10.8566,-10.8557,-10.8568,-10.8231,-10.8179,-10.8583,-10.8583,-10.8583,-10.8583,-10.8583,-10.8583,-10.6578,-10.6708,-10.6802,-10.695,-10.7024,-10.7117,-10.7239,-10.7275,-10.7405,-10.7549,-10.7533,-10.7704,-10.7786,-10.7947,-10.8001,-10.8131,-10.8066,-10.813,-10.8146,-10.8162,-10.8181,-10.7731,-10.8153,-10.8152,-10.8151,-10.815,-10.8149,0,-10.628,-10.6284,-10.6415,-10.6552,-10.6659,-10.6763,-10.6859,-10.6935,-10.6934,-10.704,-10.7194,-10.7283,-10.7456,-10.7597,-10.772,-10.7762,-10.7703,-10.7698,-10.7742,-10.7753,-10.7749,-10.7753,-10.7202,-10.7684,-10.768,-10.7677,-10.7675,-10.7673,-10.5866,-10.6014,-10.6116,-10.6206,-10.6261,-10.6406,-10.6493,-10.6482,-10.6573,-10.6686,-10.6796,-10.6939,-10.7052,-10.7289,-10.7318,-10.7444,-10.7416,-10.76,-10.7434,-10.7441,-10.7418,-10.741,-10.7424,-10.7631,-10.7637,-10.7641,-10.7645,0,-10.5631,-10.5649,-10.5881,-10.5963,-10.5989,-10.6143,-10.621,-10.6335,-10.6352,-10.6525,-10.6564,-10.6588,-10.6735,-10.6735,-10.6899,-10.6894,-10.7142,-10.7111,-10.7115,-10.7108,-10.7272,-10.7257,-10.7805,-10.7876,-10.7395,-10.74,-10.7404,0,-10.5283,-10.5476,-10.549,-10.5624,-10.5838,-10.5821,-10.6031,-10.6066,-10.6137,-10.6273,-10.6209,-10.6337,-10.6316,-10.6443,-10.6434,-10.6636,-10.6667,-10.6674,-10.6669,-10.6679,-10.6678,-10.6722,-10.6699,-10.6652,-10.6649,-10.6647,-10.6645,0,-10.4913,-10.5145,-10.5362,-10.5416,-10.552,-10.5621,-10.5668,-10.5745,-10.5828,-10.5935,-10.5988,-10.6112,-10.6179,-10.6275,-10.6264,-10.6151,-10.651,-10.6353,-10.6517,-10.6518,-10.6593,-10.6589,-10.7077,-10.6641,-10.664,-10.6639,-10.6638,0,-10.4631,-10.4747,-10.5058,-10.5143,-10.5203,-10.5344,-10.5468,-10.5588,-10.5674,-10.5679,-10.5762,-10.5717,-10.5893,-10.5738,-10.598,-10.5837,-10.5906,-10.5929,-10.594,-10.5954,-10.5779,-10.6054,-10.652,-10.6568,-10.597,-10.5964,-10.5959,0,-10.4203,-10.4521,-10.4509,-10.4803,-10.4949,-10.487,-10.5025,-10.5102,-10.5122,-10.5245,-10.5264,-10.5403,-10.5287,-10.5329,-10.5449,-10.5472,-10.5658,-10.5447,-10.5619,-10.5625,-10.56,-10.603,-10.6099,-10.6419,-10.5888,-10.5895,-10.5901,0,-10.3872,-10.3998,-10.4051,-10.4112,-10.4214,-10.4334,-10.4512,-10.4648,-10.4731,-10.4823,-10.4969,-10.5162,-10.5083,-10.5153,-10.5127,-10.5252,-10.5532,-10.5148,-10.5149,-10.5217,-10.5851,-10.5917,-10.5971,-10.5486,-10.5495,-10.5502,-10.5844,0,-10.3445,-10.3604,-10.3749,-10.3883,-10.3976,-10.4159,-10.4161,-10.4257,-10.4226,-10.4241,-10.4455,-10.4513,-10.4644,-10.4704,-10.4671,-10.4959,-10.4909,-10.4821,-10.4666,-10.4949,-10.5061,-10.5107,-10.45,-10.4495,-10.4491,-10.4488,0,0,-10.303,-10.3257,-10.3235,-10.3408,-10.3485,-10.3397,-10.3592,-10.3655,-10.3783,-10.3836,-10.3751,-10.4032,-10.4081,-10.4339,-10.4427,-10.448,-10.453,-10.443,-10.4815,-10.4851,-10.4885,-10.5005,-10.5053,-10.4481,-10.448,-10.4478,-10.4477,0,-10.2874,-10.2935,-10.313,-10.3196,-10.3292,-10.3299,-10.3347,-10.3423,-10.3441,-10.3651,-10.357,-10.3697,-10.3919,-10.3983,-10.4044,-10.44,-10.4329,-10.444,-10.4634,-10.4776,-10.4818,-10.4854,-10.4981,-10.5027,-10.4468,-10.4468,-10.4469,0,-10.2547,-10.2608,-10.2702,-10.2873,-10.2933,-10.3083,-10.2924,-10.3088,-10.3197,-10.3084,-10.3292,-10.3323,-10.3406,-10.365,-10.3759,-10.3683,-10.4147,-10.3998,-10.4022,-10.4033,-10.417,-10.422,-10.4265,-10.3677,-10.3675,-10.3672,0,0,-10.2411,-10.2559,-10.2615,-10.2839,-10.2883,-10.2895,-10.2973,-10.2949,-10.3029,-10.3061,-10.3099,-10.3176,-10.3304,-10.3389,-10.3509,-10.3777,-10.3791,-10.3901,-10.3939,-10.3969,-10.3997,-10.4142,-10.4191,-10.3662,-10.3662,-10.3661,0,0,-10.2344,-10.2421,-10.2376,-10.2636,-10.2718,-10.2784,-10.2919,-10.2863,-10.2972,-10.295,-10.291,-10.2929,-10.3156,-10.3188,-10.3052,-10.3453,-10.3301,-10.3333,-10.3424,-10.3471,-10.3508,-10.3494,-10.2891,0,0,0,0,0,-10.2184,-10.2412,-10.237,-10.2414,-10.2625,-10.2808,-10.2834,-10.2811,-10.2705,-10.2813,-10.2835,-10.2753,-10.3107,-10.2986,-10.3027,-10.3178,-10.353,-10.3553,-10.3575,-10.3756,-10.3805,-10.3846,0,0,0,0,0,0,-10.2201,-10.2255,-10.2364,-10.2441,-10.2488,-10.28,-10.2615,-10.2615,-10.2693,-10.2675,-10.2752,-10.2756,-10.2735,-10.2963,-10.3,-10.3144,-10.2878,-10.3539,-10.3559,-10.3577,-10.3773,-10.3813,-10.3847,0,0,0,0,0,-10.2215,-10.2258,-10.2604,-10.2437,-10.2478,-10.2501,-10.2606,-10.2605,-10.2664,-10.2697,-10.2699,-10.2639,-10.274,-10.2769,-10.2985,-10.3128,-10.2852,-10.2866,-10.3552,-10.3568,-10.3582,-10.3792,0,0,0,0,0,0,-10.2224,-10.2256,-10.2612,-10.2623,-10.2349,-10.2483,-10.2504,-10.2596,-10.268,-10.2685,-10.2581,-10.2566,-10.2746,-10.2768,-10.2791,-10.3124,-10.2831,-10.2845,-10.2854,-10.3564,-10.3576,-10.3587,0,0,0,0,0,0,-10.2232,-10.2266,-10.2617,-10.2508,-10.2507,-10.2467,-10.2485,-10.2662,-10.2682,-10.2559,-10.2549,-10.2573,-10.2709,-10.2768,-10.2785,-10.3063,-10.2815,-10.2828,-10.2838,-10.2844,-10.3574,-10.3584,0,0,0,0,0,0,-10.2246,-10.2275,-10.2505,-10.2504,-10.2502,-10.2628,-10.2622,-10.2838,-10.2595,-10.2556,-10.2571,-10.2561,-10.2711,-10.2728,-10.2782,-10.3053,-10.3061,-10.2815,-10.2824,-10.2831,-10.2835,0,0,0,0,0,0,0,-10.2257,-10.2069,-10.2545,-10.25,-10.2498,-10.2729,-10.2732,-10.2735,-10.2592,-10.2583,-10.2574,-10.2565,-10.2736,-10.2751,-10.2767,-10.3045,0,0,-10.2814,-10.282,0,0,0,0,0,0,0,0,-10.2056,-10.2066,-10.2545,-10.2548,-10.255,-10.2729,-10.2731,-10.2734,-10.2591,-10.2583,-10.2576,-10.2569,-10.274,-10.2753,-10.2765,0,0,0,0,0,0,0,0,0,0,0,0,0,0,0,-10.2545,-10.2547,0,-10.2729,-10.2731,-10.2733,-10.259,-10.2583,-10.2577,-10.2572,-10.2744,-10.2754,-10.2764,0,0,0,0,0,0,0,0,0,0,0,0,0,0,0,0,0,0,0,0,0,0,0,0,0,0,0,0,0,0,0,0,0,0,0,0,0,0,0,0,0,0,0,0,0,0,0,0,0,0,0,0,0,0,0,0,0,0,0,0,0,0,0,0,0,0,0,0,0]}]]]